Devils Lake, ND

12:30 AM CDT on April 30, 2017 (GMT -0500)
Devils Lake Municipal

Weather History for KDVL - November, 2013

Change the Weather History Date:

Wednesday, November 20, 2013

  Actual Average Record
Temperature  
Mean Temperature 21 °F -  
Max Temperature 30 °F 31 °F 55 °F (1989)
Min Temperature 12 °F 16 °F -6 °F (1950)
Degree Days  
Heating Degree Days 44    
Moisture  
Dew Point 11 °F    
Average Humidity 68    
Maximum Humidity 80    
Minimum Humidity 62    
Precipitation  
Precipitation 0.00 in - - ()
Sea Level Pressure  
Sea Level Pressure 29.93 in    
Wind  
Wind Speed 13 mph (NNW)    
Max Wind Speed 21 mph    
Max Gust Speed 23 mph    
Visibility 7 miles    
Events      
Averages and records for this station are not official NWS values.
T = Trace of Precipitation, MM = Missing Value Source: NWS Daily Summary

Daily Weather History Graph

Daily Weather History Graph

Search for Another Location

Airport or City:

Trip Planner

Search our weather history database for the weather conditions in past years. The results will help you decide how hot, cold, wet, or windy it might be!

Date:

Astronomy

Nov. 20, 2013 Rise Set
Actual Time 7:50 AM CST 4:52 PM CST
Civil Twilight 7:15 AM CST 5:26 PM CST
Nautical Twilight 6:37 AM CST 6:04 PM CST
Astronomical Twilight 6:00 AM CST 6:41 PM CST
Moon 7:36 PM CST (11/20) 10:16 AM CST (11/20)
Length of Visible Light 10h 10m
Length of Day
9h 01m
Waning Gibbous, 91% of the Moon is Illuminated
Nov 20
Waning Gibbous
Nov 25
Last Quarter
Dec 2
New
Dec 9
First Quarter
Dec 17
Full

Hourly Weather History & Observations

Time (CST) Temp. Windchill Dew Point Humidity Pressure Visibility Wind Dir Wind Speed Gust Speed Precip Events Conditions
12:15 AM 30.2 °F 25.4 °F 23.0 °F 75% 29.58 in 10.0 mi West 4.6 mph - N/A   Clear
12:35 AM 28.4 °F 20.4 °F 23.0 °F 80% 29.59 in 10.0 mi WNW 8.1 mph - N/A   Clear
12:55 AM 28.4 °F 16.6 °F 23.0 °F 80% 29.60 in 10.0 mi WNW 16.1 mph - N/A   Clear
1:15 AM 28.4 °F 17.0 °F 21.2 °F 74% 29.61 in 10.0 mi NW 15.0 mph - N/A   Clear
1:35 AM 26.6 °F 16.8 °F 21.2 °F 80% 29.64 in 10.0 mi NW 10.4 mph - N/A   Clear
1:55 AM 26.6 °F 15.7 °F 19.4 °F 74% 29.65 in 10.0 mi NW 12.7 mph - N/A   Clear
2:15 AM 24.8 °F 12.9 °F 19.4 °F 80% 29.67 in 10.0 mi NW 13.8 mph - N/A   Clear
2:35 AM 24.8 °F 14.6 °F 17.6 °F 74% 29.68 in 9.0 mi NW 10.4 mph - N/A   Clear
2:55 AM 24.8 °F 13.4 °F 17.6 °F 74% 29.69 in 8.0 mi NW 12.7 mph - N/A   Scattered Clouds
3:15 AM 24.8 °F 14.0 °F 19.4 °F 80% 29.70 in 10.0 mi NW 11.5 mph - N/A   Overcast
3:35 AM 26.6 °F 17.5 °F 19.4 °F 74% 29.71 in 9.0 mi NW 9.2 mph - N/A   Overcast
3:55 AM 26.6 °F 16.2 °F 19.4 °F 74% 29.72 in 10.0 mi NW 11.5 mph - N/A   Overcast
4:15 AM 26.6 °F 15.2 °F 19.4 °F 74% 29.74 in 9.0 mi NW 13.8 mph - N/A   Overcast
4:35 AM 26.6 °F 16.2 °F 19.4 °F 74% 29.75 in 10.0 mi NNW 11.5 mph - N/A   Overcast
4:55 AM 26.6 °F 14.7 °F 15.8 °F 64% 29.75 in 10.0 mi North 15.0 mph - N/A   Overcast
5:15 AM 24.8 °F 11.9 °F 14.0 °F 64% 29.77 in 10.0 mi North 16.1 mph 23.0 mph N/A   Overcast
5:35 AM 24.8 °F 13.4 °F 14.0 °F 64% 29.79 in 10.0 mi North 12.7 mph - N/A   Overcast
5:55 AM 24.8 °F 12.9 °F 14.0 °F 64% 29.80 in 10.0 mi NNW 13.8 mph - N/A   Overcast
6:15 AM 21.2 °F 10.1 °F 12.2 °F 68% 29.81 in 10.0 mi North 10.4 mph - N/A   Overcast
6:35 AM 21.2 °F 8.9 °F 10.4 °F 63% 29.82 in 10.0 mi North 12.7 mph - N/A   Scattered Clouds
6:55 AM 21.2 °F 7.8 °F 10.4 °F 63% 29.83 in 10.0 mi North 15.0 mph - N/A   Clear
7:15 AM 19.4 °F 6.6 °F 10.4 °F 68% 29.85 in 10.0 mi NNW 12.7 mph - N/A   Clear
7:35 AM 19.4 °F 6.0 °F 10.4 °F 68% 29.85 in 10.0 mi North 13.8 mph - N/A   Clear
7:55 AM 19.4 °F 8.6 °F 10.4 °F 68% 29.86 in 10.0 mi NNW 9.2 mph - N/A   Clear
8:15 AM 21.2 °F 11.7 °F 12.2 °F 68% 29.87 in 10.0 mi North 8.1 mph - N/A   Mostly Cloudy
8:35 AM 21.2 °F 8.9 °F 10.4 °F 63% 29.88 in 10.0 mi NNW 12.7 mph - N/A   Mostly Cloudy
8:55 AM 21.2 °F 7.8 °F 10.4 °F 63% 29.89 in 10.0 mi North 15.0 mph - N/A   Scattered Clouds
9:15 AM 21.2 °F 6.8 °F 10.4 °F 63% 29.89 in 10.0 mi NNW 17.3 mph 20.7 mph N/A   Mostly Cloudy
9:35 AM 21.2 °F 8.3 °F 10.4 °F 63% 29.90 in 10.0 mi North 13.8 mph - N/A   Scattered Clouds
9:55 AM 21.2 °F 8.3 °F 10.4 °F 63% 29.91 in 10.0 mi NNW 13.8 mph - N/A   Mostly Cloudy
10:15 AM 21.2 °F 7.8 °F 10.4 °F 63% 29.92 in 10.0 mi North 15.0 mph - N/A   Overcast
10:35 AM 21.2 °F 10.1 °F 10.4 °F 63% 29.93 in 10.0 mi North 10.4 mph - N/A   Overcast
10:55 AM 21.2 °F 8.3 °F 10.4 °F 63% 29.93 in 10.0 mi North 13.8 mph - N/A   Overcast
11:15 AM 21.2 °F 8.9 °F 10.4 °F 63% 29.93 in 10.0 mi North 12.7 mph - N/A   Overcast
11:35 AM 21.2 °F 7.8 °F 10.4 °F 63% 29.93 in 5.0 mi North 15.0 mph - N/A   Overcast
11:55 AM 21.2 °F 7.3 °F 10.4 °F 63% 29.92 in 4.0 mi North 16.1 mph - N/A   Overcast
12:15 PM 21.2 °F 7.8 °F 10.4 °F 63% 29.92 in 5.0 mi North 15.0 mph - N/A   Overcast
12:35 PM 21.2 °F 8.3 °F 10.4 °F 63% 29.93 in 2.0 mi North 13.8 mph - N/A   Overcast
12:55 PM 19.4 °F 6.0 °F 10.4 °F 68% 29.93 in 1.8 mi North 13.8 mph - N/A   Overcast
1:15 PM 21.2 °F 8.9 °F 10.4 °F 63% 29.92 in 3.0 mi NNE 12.7 mph - N/A   Overcast
1:35 PM 21.2 °F 8.9 °F 10.4 °F 63% 29.92 in 10.0 mi North 12.7 mph - N/A   Overcast
1:55 PM 21.2 °F 10.1 °F 10.4 °F 63% 29.92 in 10.0 mi North 10.4 mph - N/A   Overcast
2:15 PM 21.2 °F 8.3 °F 10.4 °F 63% 29.93 in 10.0 mi North 13.8 mph 18.4 mph N/A   Overcast
2:35 PM 21.2 °F 8.9 °F 10.4 °F 63% 29.94 in 10.0 mi North 12.7 mph - N/A   Overcast
2:55 PM 21.2 °F 7.8 °F 10.4 °F 63% 29.94 in 9.0 mi NNE 15.0 mph - N/A   Overcast
3:15 PM 21.2 °F 7.3 °F 10.4 °F 63% 29.95 in 2.0 mi North 16.1 mph - N/A   Overcast
3:35 PM 19.4 °F 6.0 °F 10.4 °F 68% 29.96 in 1.5 mi NNE 13.8 mph 19.6 mph N/A   Overcast
3:55 PM 19.4 °F 6.6 °F 12.2 °F 74% 29.99 in 1.2 mi NNE 12.7 mph - N/A   Overcast
4:15 PM 19.4 °F 6.6 °F 10.4 °F 68% 30.01 in 2.0 mi NNE 12.7 mph - N/A   Overcast
4:35 PM 19.4 °F 6.0 °F 12.2 °F 74% 30.01 in 0.8 mi NNE 13.8 mph - N/A   Overcast
4:55 PM 19.4 °F 3.6 °F 10.4 °F 68% 30.02 in 0.5 mi North 19.6 mph 23.0 mph N/A   Overcast
5:15 PM 17.6 °F 2.2 °F 10.4 °F 73% 30.04 in 1.5 mi North 17.3 mph 21.9 mph N/A   Overcast
5:35 PM 17.6 °F 4.3 °F 10.4 °F 73% 30.06 in 3.0 mi North 12.7 mph 17.3 mph N/A   Overcast
5:55 PM 17.6 °F 1.7 °F 10.4 °F 73% 30.08 in 3.0 mi North 18.4 mph - N/A   Overcast
6:15 PM 17.6 °F 2.2 °F 10.4 °F 73% 30.09 in 1.8 mi North 17.3 mph - N/A   Overcast
6:35 PM 15.8 °F -0.2 °F 8.6 °F 73% 30.09 in 1.5 mi NNE 17.3 mph 20.7 mph N/A   Overcast
6:55 PM 15.8 °F -0.2 °F 6.8 °F 68% 30.09 in 0.8 mi North 17.3 mph - N/A   Overcast
7:15 PM 15.8 °F 2.1 °F 6.8 °F 68% 30.10 in 1.5 mi North 12.7 mph - N/A   Overcast
7:35 PM 15.8 °F 1.4 °F 6.8 °F 68% 30.11 in 2.5 mi North 13.8 mph - N/A   Overcast
7:55 PM 14.0 °F -2.0 °F 6.8 °F 73% 30.13 in 1.8 mi North 16.1 mph - N/A   Overcast
8:15 PM 14.0 °F -2.0 °F 3.2 °F 62% 30.14 in 2.0 mi North 16.1 mph 20.7 mph N/A   Overcast
8:35 PM 12.2 °F -3.7 °F 5.0 °F 73% 30.15 in 2.0 mi North 15.0 mph - N/A   Overcast
8:55 PM 12.2 °F -4.3 °F 5.0 °F 73% 30.16 in 1.8 mi North 16.1 mph 19.6 mph N/A   Overcast
9:15 PM 12.2 °F -4.3 °F 3.2 °F 67% 30.18 in 3.0 mi North 16.1 mph - N/A   Overcast
9:35 PM 12.2 °F -3.7 °F 3.2 °F 67% 30.18 in 3.0 mi NNW 15.0 mph - N/A   Overcast
9:55 PM 12.2 °F -3.7 °F 3.2 °F 67% 30.19 in 4.0 mi North 15.0 mph - N/A   Overcast
10:15 PM 12.2 °F -3.7 °F 3.2 °F 67% 30.20 in 5.0 mi NNW 15.0 mph 20.7 mph N/A   Overcast
10:35 PM 12.2 °F -4.8 °F 3.2 °F 67% 30.21 in 7.0 mi NNW 17.3 mph - N/A   Overcast
10:55 PM 12.2 °F -6.3 °F 3.2 °F 67% 30.22 in 8.0 mi NNW 20.7 mph - N/A   Mostly Cloudy
11:15 PM 12.2 °F -5.8 °F 1.4 °F 62% 30.23 in 3.0 mi NNW 19.6 mph - N/A   Overcast
11:35 PM 12.2 °F -5.3 °F 3.2 °F 67% 30.24 in 9.0 mi NNW 18.4 mph - N/A   Overcast
11:55 PM 12.2 °F -4.8 °F 3.2 °F 67% 30.25 in 7.0 mi NNW 17.3 mph - N/A   Overcast